Terug naar catalogus

CZ-6A DEB

ActiefPO
NORAD 60836·DEBRIS·🇨🇳 China

Gelanceerd Aug 6, 2024 vanaf Taiyuan Satellite Launch Center

Loading…

Volgende Passages (komende 24 uur)

TLE

VersSource: Space-Track

Epoch: Sep 13, 2026, 23:20 UTC

1 60836U 24140HP  26256.97251881  .00003764  00000-0  63093-3 0  9990
2 60836  88.9859 257.6684 0099482 283.0901  75.9226 14.66320189110503

Volg CZ-6A DEB in realtime met AllMySat

Download on the App Store